Time,TemperatureF,DewpointF,PressureIn,WindDirection,WindDirectionDegrees,WindSpeedMPH,WindSpeedGustMPH,Humidity,HourlyPrecipIn,Conditions,Clouds,dailyrainin,SoftwareType,DateUTC
2013-02-16 00:02:00,13.0,6.0,-100.00,NNE,25,4.0,11.0,71,-99.99,,,-99.99,,2013-02-16 05:02:00,
2013-02-16 00:12:00,13.0,6.0,-100.00,NNE,25,4.0,11.0,71,-99.99,,,-99.99,,2013-02-16 05:12:00,
2013-02-16 00:22:00,13.0,6.0,-100.00,NNE,20,5.0,11.0,71,-99.99,,,-99.99,,2013-02-16 05:22:00,
2013-02-16 00:32:00,14.0,6.0,-100.00,ENE,65,5.0,10.0,70,-99.99,,,-99.99,,2013-02-16 05:32:00,
2013-02-16 00:42:00,14.0,6.0,-100.00,ENE,65,5.0,10.0,70,-99.99,,,-99.99,,2013-02-16 05:42:00,
2013-02-16 00:52:00,15.0,6.0,-100.00,NE,55,8.0,14.0,68,-99.99,,,-99.99,,2013-02-16 05:52:00,
2013-02-16 01:02:00,15.0,6.0,-100.00,North,0,5.0,9.0,68,-99.99,,,-99.99,,2013-02-16 06:02:00,
2013-02-16 01:11:00,15.0,6.0,-100.00,North,0,5.0,9.0,68,-99.99,,,-99.99,,2013-02-16 06:11:00,
2013-02-16 01:22:00,14.0,6.0,-100.00,NNE,30,5.0,9.0,71,-99.99,,,-99.99,,2013-02-16 06:22:00,
2013-02-16 01:32:00,14.0,7.0,-100.00,North,5,4.0,11.0,72,-99.99,,,-99.99,,2013-02-16 06:32:00,
2013-02-16 01:42:00,14.0,7.0,-100.00,North,5,4.0,11.0,72,-99.99,,,-99.99,,2013-02-16 06:42:00,
2013-02-16 01:52:00,13.0,6.0,-100.00,NNE,20,5.0,9.0,73,-99.99,,,-99.99,,2013-02-16 06:52:00,
2013-02-16 02:02:00,13.0,7.0,-100.00,NE,35,6.0,11.0,76,-99.99,,,-99.99,,2013-02-16 07:02:00,
2013-02-16 02:11:00,13.0,7.0,-100.00,NE,35,6.0,11.0,76,-99.99,,,-99.99,,2013-02-16 07:11:00,
2013-02-16 02:22:00,12.0,7.0,-100.00,North,5,6.0,9.0,79,-99.99,,,-99.99,,2013-02-16 07:22:00,
2013-02-16 02:32:00,11.0,7.0,-100.00,North,0,6.0,9.0,81,-99.99,,,-99.99,,2013-02-16 07:32:00,
2013-02-16 02:42:00,11.0,7.0,-100.00,North,0,6.0,9.0,81,-99.99,,,-99.99,,2013-02-16 07:42:00,
2013-02-16 02:52:00,11.0,7.0,-100.00,North,0,4.0,9.0,82,-99.99,,,-99.99,,2013-02-16 07:52:00,
2013-02-16 03:01:00,10.0,6.0,-100.00,North,0,5.0,8.0,82,-99.99,,,-99.99,,2013-02-16 08:01:00,
2013-02-16 03:11:00,10.0,6.0,-100.00,North,0,5.0,8.0,82,-99.99,,,-99.99,,2013-02-16 08:11:00,
2013-02-16 03:22:00,10.0,6.0,-100.00,North,355,4.0,8.0,83,-99.99,,,-99.99,,2013-02-16 08:22:00,
2013-02-16 03:32:00,10.0,6.0,-100.00,North,0,4.0,8.0,84,-99.99,,,-99.99,,2013-02-16 08:32:00,
2013-02-16 03:42:00,10.0,6.0,-100.00,North,0,4.0,8.0,84,-99.99,,,-99.99,,2013-02-16 08:42:00,
2013-02-16 03:52:00,9.0,5.0,-100.00,North,0,4.0,6.0,85,-99.99,,,-99.99,,2013-02-16 08:52:00,
2013-02-16 04:02:00,7.0,4.0,-100.00,NNW,335,2.0,5.0,85,-99.99,,,-99.99,,2013-02-16 09:02:00,
2013-02-16 04:11:00,7.0,4.0,-100.00,NNW,335,2.0,5.0,85,-99.99,,,-99.99,,2013-02-16 09:11:00,
2013-02-16 04:21:00,8.0,5.0,-100.00,ESE,110,2.0,9.0,86,-99.99,,,-99.99,,2013-02-16 09:21:00,
2013-02-16 04:32:00,8.0,5.0,-100.00,ESE,110,2.0,9.0,86,-99.99,,,-99.99,,2013-02-16 09:32:00,
2013-02-16 04:52:00,8.0,4.0,-100.00,North,0,1.0,3.0,86,-99.99,,,-99.99,,2013-02-16 09:52:00,
2013-02-16 05:01:00,6.0,3.0,-100.00,North,355,1.0,1.0,86,-99.99,,,-99.99,,2013-02-16 10:01:00,
2013-02-16 05:11:00,6.0,3.0,-100.00,North,355,1.0,1.0,86,-99.99,,,-99.99,,2013-02-16 10:11:00,
2013-02-16 05:21:00,5.0,1.0,-100.00,North,0,4.0,4.0,86,-99.99,,,-99.99,,2013-02-16 10:21:00,
2013-02-16 05:32:00,5.0,2.0,-100.00,North,0,4.0,5.0,86,-99.99,,,-99.99,,2013-02-16 10:32:00,
2013-02-16 05:42:00,5.0,2.0,-100.00,North,0,4.0,5.0,86,-99.99,,,-99.99,,2013-02-16 10:42:00,
2013-02-16 05:52:00,5.0,2.0,-100.00,NNW,345,4.0,5.0,85,-99.99,,,-99.99,,2013-02-16 10:52:00,
2013-02-16 06:02:00,4.0,0.0,-100.00,North,350,4.0,5.0,85,-99.99,,,-99.99,,2013-02-16 11:02:00,
2013-02-16 06:11:00,4.0,0.0,-100.00,North,350,4.0,5.0,85,-99.99,,,-99.99,,2013-02-16 11:11:00,
2013-02-16 06:22:00,3.0,0.0,-100.00,WNW,295,1.0,4.0,85,-99.99,,,-99.99,,2013-02-16 11:22:00,
2013-02-16 06:32:00,2.0,-1.0,-100.00,NW,320,3.0,4.0,85,-99.99,,,-99.99,,2013-02-16 11:32:00,
2013-02-16 06:42:00,2.0,-1.0,-100.00,NW,320,3.0,4.0,85,-99.99,,,-99.99,,2013-02-16 11:42:00,
2013-02-16 06:52:00,1.0,-2.0,-100.00,NNW,335,2.0,4.0,84,-99.99,,,-99.99,,2013-02-16 11:52:00,
2013-02-16 07:02:00,1.0,-2.0,-100.00,NW,325,1.0,2.0,84,-99.99,,,-99.99,,2013-02-16 12:02:00,
2013-02-16 07:12:00,1.0,-2.0,-100.00,NW,325,1.0,2.0,84,-99.99,,,-99.99,,2013-02-16 12:12:00,
2013-02-16 07:22:00,0.0,-3.0,-100.00,NNW,340,3.0,4.0,84,-99.99,,,-99.99,,2013-02-16 12:22:00,
2013-02-16 07:32:00,0.0,-4.0,-100.00,North,0,0.0,1.0,83,-99.99,,,-99.99,,2013-02-16 12:32:00,
2013-02-16 07:42:00,0.0,-4.0,-100.00,North,0,0.0,1.0,83,-99.99,,,-99.99,,2013-02-16 12:42:00,
2013-02-16 07:52:00,1.0,-3.0,-100.00,West,275,2.0,3.0,84,-99.99,,,-99.99,,2013-02-16 12:52:00,
2013-02-16 08:02:00,0.0,-4.0,-100.00,WNW,295,2.0,2.0,83,-99.99,,,-99.99,,2013-02-16 13:02:00,
2013-02-16 08:12:00,0.0,-4.0,-100.00,WNW,295,2.0,2.0,83,-99.99,,,-99.99,,2013-02-16 13:12:00,
2013-02-16 08:22:00,1.0,-3.0,-100.00,NW,320,5.0,6.0,83,-99.99,,,-99.99,,2013-02-16 13:22:00,
2013-02-16 08:32:00,1.0,-3.0,-100.00,NW,320,5.0,6.0,83,-99.99,,,-99.99,,2013-02-16 13:32:00,
2013-02-16 09:01:00,1.0,-3.0,-100.00,North,0,2.0,4.0,82,-99.99,,,-99.99,,2013-02-16 14:01:00,
2013-02-16 09:11:00,1.0,-3.0,-100.00,North,0,2.0,4.0,82,-99.99,,,-99.99,,2013-02-16 14:11:00,
2013-02-16 09:21:00,4.0,0.0,-100.00,East,100,1.0,4.0,83,-99.99,,,-99.99,,2013-02-16 14:21:00,
2013-02-16 09:32:00,8.0,4.0,-100.00,SE,135,2.0,5.0,84,-99.99,,,-99.99,,2013-02-16 14:32:00,
2013-02-16 09:42:00,8.0,4.0,-100.00,SE,135,2.0,5.0,84,-99.99,,,-99.99,,2013-02-16 14:42:00,
2013-02-16 09:52:00,9.0,6.0,-100.00,SSE,165,3.0,6.0,85,-99.99,,,-99.99,,2013-02-16 14:52:00,
2013-02-16 10:02:00,10.0,6.0,-100.00,SSE,160,8.0,11.0,84,-99.99,,,-99.99,,2013-02-16 15:02:00,
2013-02-16 10:11:00,10.0,6.0,-100.00,SSE,160,8.0,11.0,84,-99.99,,,-99.99,,2013-02-16 15:11:00,
2013-02-16 10:22:00,10.0,6.0,-100.00,SSE,155,9.0,14.0,84,-99.99,,,-99.99,,2013-02-16 15:22:00,
2013-02-16 10:32:00,9.0,5.0,-100.00,SSE,160,9.0,14.0,83,-99.99,,,-99.99,,2013-02-16 15:32:00,
2013-02-16 10:42:00,9.0,5.0,-100.00,SSE,160,9.0,14.0,83,-99.99,,,-99.99,,2013-02-16 15:42:00,
2013-02-16 10:52:00,9.0,5.0,-100.00,SSE,150,10.0,13.0,83,-99.99,,,-99.99,,2013-02-16 15:52:00,
2013-02-16 11:02:00,10.0,6.0,-100.00,SE,135,8.0,13.0,82,-99.99,,,-99.99,,2013-02-16 16:02:00,
2013-02-16 11:11:00,10.0,6.0,-100.00,SE,135,8.0,13.0,82,-99.99,,,-99.99,,2013-02-16 16:11:00,
2013-02-16 11:21:00,10.0,5.0,-100.00,South,170,7.0,14.0,80,-99.99,,,-99.99,,2013-02-16 16:21:00,
2013-02-16 11:32:00,11.0,6.0,-100.00,SSE,155,9.0,12.0,80,-99.99,,,-99.99,,2013-02-16 16:32:00,
2013-02-16 11:42:00,11.0,6.0,-100.00,SSE,155,9.0,12.0,80,-99.99,,,-99.99,,2013-02-16 16:42:00,
2013-02-16 11:52:00,11.0,6.0,-100.00,South,170,8.0,13.0,80,-99.99,,,-99.99,,2013-02-16 16:52:00,
2013-02-16 12:01:00,11.0,6.0,-100.00,SSE,160,8.0,13.0,79,-99.99,,,-99.99,,2013-02-16 17:01:00,
2013-02-16 12:11:00,11.0,6.0,-100.00,SSE,160,8.0,13.0,79,-99.99,,,-99.99,,2013-02-16 17:11:00,
2013-02-16 12:22:00,12.0,7.0,-100.00,SE,145,9.0,13.0,78,-99.99,,,-99.99,,2013-02-16 17:22:00,
2013-02-16 12:32:00,12.0,6.0,-100.00,SSE,165,9.0,12.0,77,-99.99,,,-99.99,,2013-02-16 17:32:00,
2013-02-16 12:42:00,12.0,6.0,-100.00,SSE,165,9.0,12.0,77,-99.99,,,-99.99,,2013-02-16 17:42:00,
2013-02-16 12:52:00,13.0,6.0,-100.00,SE,135,6.0,13.0,73,-99.99,,,-99.99,,2013-02-16 17:52:00,
2013-02-16 13:02:00,12.0,5.0,-100.00,SSW,200,8.0,11.0,71,-99.99,,,-99.99,,2013-02-16 18:02:00,
2013-02-16 13:11:00,12.0,5.0,-100.00,SSW,200,8.0,11.0,71,-99.99,,,-99.99,,2013-02-16 18:11:00,
2013-02-16 13:22:00,13.0,6.0,-100.00,SSW,195,5.0,10.0,71,-99.99,,,-99.99,,2013-02-16 18:22:00,
2013-02-16 13:33:00,13.0,5.0,-100.00,SE,140,5.0,12.0,70,-99.99,,,-99.99,,2013-02-16 18:33:00,
2013-02-16 13:42:00,13.0,5.0,-100.00,SE,140,5.0,12.0,70,-99.99,,,-99.99,,2013-02-16 18:42:00,
2013-02-16 13:52:00,13.0,5.0,-100.00,South,180,7.0,11.0,67,-99.99,,,-99.99,,2013-02-16 18:52:00,
2013-02-16 14:02:00,14.0,4.0,-100.00,SSE,165,8.0,14.0,63,-99.99,,,-99.99,,2013-02-16 19:02:00,
2013-02-16 14:11:00,14.0,4.0,-100.00,SSE,165,8.0,14.0,63,-99.99,,,-99.99,,2013-02-16 19:11:00,
2013-02-16 14:22:00,14.0,2.0,-100.00,SSE,160,8.0,10.0,59,-99.99,,,-99.99,,2013-02-16 19:22:00,
2013-02-16 14:32:00,14.0,3.0,-100.00,South,185,6.0,10.0,60,-99.99,,,-99.99,,2013-02-16 19:32:00,
2013-02-16 14:42:00,14.0,3.0,-100.00,South,185,6.0,10.0,60,-99.99,,,-99.99,,2013-02-16 19:42:00,
2013-02-16 14:52:00,14.0,2.0,-100.00,South,190,5.0,9.0,59,-99.99,,,-99.99,,2013-02-16 19:52:00,
2013-02-16 15:01:00,14.0,2.0,-100.00,South,180,4.0,10.0,58,-99.99,,,-99.99,,2013-02-16 20:01:00,
2013-02-16 15:11:00,14.0,2.0,-100.00,South,180,4.0,10.0,58,-99.99,,,-99.99,,2013-02-16 20:11:00,
2013-02-16 15:22:00,15.0,3.0,-100.00,SSE,155,4.0,9.0,57,-99.99,,,-99.99,,2013-02-16 20:22:00,
2013-02-16 15:32:00,15.0,2.0,-100.00,South,190,4.0,7.0,55,-99.99,,,-99.99,,2013-02-16 20:32:00,
2013-02-16 15:42:00,15.0,2.0,-100.00,South,190,4.0,7.0,55,-99.99,,,-99.99,,2013-02-16 20:42:00,
2013-02-16 15:52:00,16.0,2.0,-100.00,SSW,210,4.0,7.0,53,-99.99,,,-99.99,,2013-02-16 20:52:00,
2013-02-16 16:02:00,16.0,2.0,-100.00,SSE,165,4.0,9.0,53,-99.99,,,-99.99,,2013-02-16 21:02:00,
2013-02-16 16:11:00,16.0,2.0,-100.00,SSE,165,4.0,9.0,53,-99.99,,,-99.99,,2013-02-16 21:11:00,
2013-02-16 16:21:00,18.0,4.0,-100.00,NE,50,1.0,6.0,53,-99.99,,,-99.99,,2013-02-16 21:21:00,
2013-02-16 16:32:00,17.0,4.0,-100.00,ESE,105,4.0,9.0,57,-99.99,,,-99.99,,2013-02-16 21:32:00,
2013-02-16 16:42:00,17.0,4.0,-100.00,ESE,105,4.0,9.0,57,-99.99,,,-99.99,,2013-02-16 21:42:00,
2013-02-16 16:52:00,17.0,5.0,-100.00,East,85,1.0,8.0,58,-99.99,,,-99.99,,2013-02-16 21:52:00,
2013-02-16 17:01:00,17.0,5.0,-100.00,SE,125,6.0,8.0,60,-99.99,,,-99.99,,2013-02-16 22:01:00,
2013-02-16 17:11:00,17.0,5.0,-100.00,SE,125,6.0,8.0,60,-99.99,,,-99.99,,2013-02-16 22:11:00,
2013-02-16 17:21:00,16.0,5.0,-100.00,NE,45,5.0,11.0,59,-99.99,,,-99.99,,2013-02-16 22:21:00,
2013-02-16 17:32:00,16.0,4.0,-100.00,NE,35,4.0,11.0,58,-99.99,,,-99.99,,2013-02-16 22:32:00,
2013-02-16 17:42:00,16.0,4.0,-100.00,NE,35,4.0,11.0,58,-99.99,,,-99.99,,2013-02-16 22:42:00,
2013-02-16 17:52:00,16.0,1.0,-100.00,East,100,9.0,13.0,51,-99.99,,,-99.99,,2013-02-16 22:52:00,
2013-02-16 18:02:00,16.0,2.0,-100.00,ESE,105,6.0,18.0,54,-99.99,,,-99.99,,2013-02-16 23:02:00,
2013-02-16 18:11:00,16.0,2.0,-100.00,ESE,105,6.0,18.0,54,-99.99,,,-99.99,,2013-02-16 23:11:00,
2013-02-16 18:21:00,15.0,1.0,-100.00,East,90,9.0,16.0,54,-99.99,,,-99.99,,2013-02-16 23:21:00,
2013-02-16 18:32:00,14.0,1.0,-100.00,ESE,105,5.0,12.0,57,-99.99,,,-99.99,,2013-02-16 23:32:00,
2013-02-16 18:42:00,14.0,1.0,-100.00,ESE,105,5.0,12.0,57,-99.99,,,-99.99,,2013-02-16 23:42:00,
2013-02-16 18:52:00,13.0,1.0,-100.00,ESE,110,6.0,11.0,58,-99.99,,,-99.99,,2013-02-16 23:52:00,
2013-02-16 19:02:00,13.0,2.0,-100.00,East,95,5.0,11.0,60,-99.99,,,-99.99,,2013-02-17 00:02:00,
2013-02-16 19:12:00,13.0,2.0,-100.00,East,95,5.0,11.0,60,-99.99,,,-99.99,,2013-02-17 00:12:00,
2013-02-16 19:22:00,12.0,1.0,-100.00,ESE,110,7.0,11.0,61,-99.99,,,-99.99,,2013-02-17 00:22:00,
2013-02-16 19:32:00,11.0,2.0,-100.00,ESE,105,4.0,9.0,64,-99.99,,,-99.99,,2013-02-17 00:32:00,
2013-02-16 19:42:00,11.0,2.0,-100.00,ESE,105,4.0,9.0,64,-99.99,,,-99.99,,2013-02-17 00:42:00,
2013-02-16 19:52:00,11.0,2.0,-100.00,ESE,110,4.0,9.0,66,-99.99,,,-99.99,,2013-02-17 00:52:00,
2013-02-16 20:01:00,11.0,2.0,-100.00,ESE,120,6.0,10.0,66,-99.99,,,-99.99,,2013-02-17 01:01:00,
2013-02-16 20:11:00,11.0,2.0,-100.00,ESE,120,6.0,10.0,66,-99.99,,,-99.99,,2013-02-17 01:11:00,
2013-02-16 20:21:00,11.0,2.0,-100.00,ESE,120,8.0,13.0,67,-99.99,,,-99.99,,2013-02-17 01:21:00,
2013-02-16 20:32:00,10.0,2.0,-100.00,ESE,115,6.0,13.0,68,-99.99,,,-99.99,,2013-02-17 01:32:00,
2013-02-16 20:42:00,10.0,2.0,-100.00,ESE,115,6.0,13.0,68,-99.99,,,-99.99,,2013-02-17 01:42:00,
2013-02-16 20:52:00,9.0,1.0,-100.00,ESE,110,4.0,8.0,69,-99.99,,,-99.99,,2013-02-17 01:52:00,
2013-02-16 21:01:00,9.0,1.0,-100.00,East,100,3.0,5.0,70,-99.99,,,-99.99,,2013-02-17 02:01:00,
2013-02-16 21:11:00,9.0,1.0,-100.00,East,100,3.0,5.0,70,-99.99,,,-99.99,,2013-02-17 02:11:00,
2013-02-16 21:21:00,8.0,0.0,-100.00,ESE,105,4.0,9.0,71,-99.99,,,-99.99,,2013-02-17 02:21:00,
2013-02-16 21:32:00,9.0,2.0,-100.00,East,100,3.0,9.0,71,-99.99,,,-99.99,,2013-02-17 02:32:00,
2013-02-16 21:42:00,9.0,2.0,-100.00,East,100,3.0,9.0,71,-99.99,,,-99.99,,2013-02-17 02:42:00,
2013-02-16 21:52:00,10.0,2.0,-100.00,East,100,7.0,11.0,69,-99.99,,,-99.99,,2013-02-17 02:52:00,
2013-02-16 22:02:00,10.0,1.0,-100.00,East,100,5.0,10.0,68,-99.99,,,-99.99,,2013-02-17 03:02:00,
2013-02-16 22:11:00,10.0,1.0,-100.00,East,100,5.0,10.0,68,-99.99,,,-99.99,,2013-02-17 03:11:00,
2013-02-16 22:21:00,8.0,0.0,-100.00,East,90,2.0,5.0,70,-99.99,,,-99.99,,2013-02-17 03:21:00,
2013-02-16 22:32:00,8.0,1.0,-100.00,ENE,70,2.0,7.0,72,-99.99,,,-99.99,,2013-02-17 03:32:00,
2013-02-16 22:42:00,8.0,1.0,-100.00,ENE,70,2.0,7.0,72,-99.99,,,-99.99,,2013-02-17 03:42:00,
2013-02-16 22:51:00,8.0,1.0,-100.00,ESE,105,2.0,9.0,73,-99.99,,,-99.99,,2013-02-17 03:51:00,
2013-02-16 23:01:00,9.0,2.0,-100.00,ENE,70,2.0,9.0,73,-99.99,,,-99.99,,2013-02-17 04:01:00,
2013-02-16 23:11:00,9.0,2.0,-100.00,ENE,70,2.0,9.0,73,-99.99,,,-99.99,,2013-02-17 04:11:00,
2013-02-16 23:21:00,8.0,1.0,-100.00,ENE,65,4.0,6.0,73,-99.99,,,-99.99,,2013-02-17 04:21:00,
2013-02-16 23:32:00,8.0,2.0,-100.00,ESE,115,1.0,8.0,73,-99.99,,,-99.99,,2013-02-17 04:32:00,
2013-02-16 23:42:00,8.0,2.0,-100.00,ESE,115,1.0,8.0,73,-99.99,,,-99.99,,2013-02-17 04:42:00,
2013-02-16 23:51:00,8.0,2.0,-100.00,ESE,110,4.0,9.0,74,-99.99,,,-99.99,,2013-02-17 04:51:00,